User: anonymous   Login
Location: Dompnac
(44.5644°N, 4.1026°E)
Time: 11:03:16
(UTC+00:00)
Language:

SPOT 3 Rocket - Orbit

View from above orbital plane
View from above orbital plane
View from above satellite
View from above satellite

Ground track
Ground track

The orbit data is extracted from the following two-line orbital elements,

1 22830U 93061H   20337.40958912  .00000024  00000-0  26159-4 0  9990
2 22830  98.7437  27.9799 0010915 184.5842 175.5243 14.31461433418859
Epoch (UTC): 02 December 2020 09:49:48
Eccentricity: 0.0010915
inclination: 98.7437°
perigee height: 779 km
apogee height: 794 km
right ascension of ascending node: 27.9799°
argument of perigee: 184.5842°
revolutions per day: 14.31461433
mean anomaly at epoch: 175.5243°
orbit number at epoch: 41885

The dashed part of the orbit path shows where the satellite is in the earth's shadow,  

DLR